This demonstration page uses our WeatherBlox Daily Observations layout. Learn more.

40.92945, -100.16068

Hourly Observations for August 12, 2018

Temp ( °F °C ) Dew Point ( °F °C ) Humidity (%) Winds ( mph kmh ) Pressure ( in mb ) Visibility ( mi km ) Precip ( " mm )
12:15 am 00:15 Clear 67 19.7 64 17.5 87 87 Calm 30.03 1017 10 16.0934 0 0
12:35 am 00:35 Clear 67 19.3 64 17.5 89 89 Calm 30.03 1017 10 16.0934 0 0
12:55 am 00:55 Clear 66 18.9 63 17.2 90 90 Calm 30.03 1017 10 16.0934 0 0
1:15 am 01:15 Clear 65 18.3 63 17 92 92 ENE 5 7 30.03 1017 7 11.26538 0 0
1:35 am 01:35 Clear 66 19 64 17.5 91 91 ENE 3 6 30.03 1017 7 11.26538 0 0
1:55 am 01:55 Clear 65 18.3 63 17 92 92 Calm 30.03 1017 7 11.26538 0 0
2:15 am 02:15 Clear 64 17.8 62 16.6 93 93 Calm 30.03 1017 7 11.26538 0 0
2:35 am 02:35 Clear 65 18.1 63 17 93 93 Calm 30 1016 7 11.26538 0 0
2:55 am 02:55 Clear with Mist and Fog 64 17.5 62 16.5 94 94 Calm 30 1016 5 8.0467 0 0
3:15 am 03:15 Clear with Mist and Fog 64 17.5 62 16.5 94 94 Calm 30 1016 5 8.0467 0 0
3:35 am 03:35 Clear with Mist and Fog 63 17.2 61 16.3 94 94 Calm 30.06 1018 5 8.0467 0 0
3:55 am 03:55 Clear with Mist and Fog 62 16.8 60 15.8 94 94 Calm 30.06 1018 5 8.0467 0 0
4:15 am 04:15 Clear with Mist and Fog 62 16.8 61 15.9 94 94 Calm 30.06 1018 5 8.0467 0 0
4:35 am 04:35 Clear 62 16.8 61 15.9 94 94 Calm 30.06 1018 7 11.26538 0 0
4:55 am 04:55 Clear with Mist and Fog 62 16.6 60 15.7 94 94 Calm 30.06 1018 5 8.0467 0 0
5:15 am 05:15 Clear 62 16.7 60 15.8 94 94 Calm 30.06 1018 7 11.26538 0 0
5:35 am 05:35 Clear with Mist and Fog 61 16.3 60 15.3 94 94 Calm 30.03 1017 4 6.43736 0 0
5:55 am 05:55 Clear with Mist and Fog 61 16.3 60 15.4 94 94 Calm 30.03 1017 3 4.82802 0 0
6:15 am 06:15 Clear with Mist and Fog 60 15.7 59 14.8 94 94 Calm 30.06 1018 4 6.43736 0 0
6:35 am 06:35 Clear with Mist and Fog 60 15.6 58 14.7 94 94 Calm 30.06 1018 4 6.43736 0 0
6:55 am 06:55 Sunny with Mist and Fog 60 15.4 58 14.6 95 95 Calm 30.06 1018 3 4.82802 0 0
7:15 am 07:15 Sunny with Mist and Fog 59 15.2 58 14.5 96 96 Calm 30.06 1018 5 8.0467 0 0
7:35 am 07:35 Sunny with Mist and Fog 61 16.1 59 15.2 94 94 Calm 30.06 1018 5 8.0467 0 0
7:55 am 07:55 Sunny 62 16.9 61 16 94 94 Calm 30.06 1018 7 11.26538 0 0
8:15 am 08:15 Sunny 64 18 62 16.7 92 92 Calm 30.03 1017 7 11.26538 0 0
8:35 am 08:35 Sunny 66 19 62 16.8 87 87 SSE 3 6 30.03 1017 7 11.26538 0 0
8:55 am 08:55 Sunny 68 19.9 62 16.9 83 83 SSE 3 6 30.03 1017 7 11.26538 0 0
9:15 am 09:15 Sunny 70 21.2 64 17.5 80 80 SSE 3 6 30.03 1017 7 11.26538 0 0
9:35 am 09:35 Sunny 73 22.7 63 17.4 72 72 Calm 30.03 1017 7 11.26538 0 0
9:55 am 09:55 Sunny 74 23.5 63 17 67 67 Calm 30.03 1017 10 16.0934 0 0
10:15 am 10:15 Sunny 75 24.1 63 17.3 66 66 S 3 6 30.03 1017 10 16.0934 0 0
10:35 am 10:35 Sunny 76 24.6 65 18.3 68 68 SSE 6 9 30 1016 10 16.0934 0 0
10:55 am 10:55 Sunny 78 25.5 64 17.8 62 62 S 3 6 30 1016 7 11.26538 0 0
11:15 am 11:15 Sunny 79 26.1 65 18.1 61 61 S 6 9 30 1016 10 16.0934 0 0
11:35 am 11:35 Sunny 80 26.7 65 18.3 60 60 SSE 5 7 29.97 1015 10 16.0934 0 0
11:55 am 11:55 Sunny 81 27 65 18.5 60 60 SSE 7 11 29.97 1015 10 16.0934 0 0
12:15 pm 12:15 Sunny 82 27.5 64 17.6 55 55 S 5 7 29.97 1015 10 16.0934 0 0
12:35 pm 12:35 Sunny 83 28.5 61 16.3 48 48 S 7 11 29.94 1014 10 16.0934 0 0
12:55 pm 12:55 Sunny 84 28.9 61 16.3 46 46 SSW 7 11 29.94 1014 10 16.0934 0 0
1:15 pm 13:15 Sunny 85 29.2 61 16.3 46 46 SW 6 9 29.94 1014 10 16.0934 0 0
1:35 pm 13:35 Sunny 85 29.4 62 16.5 46 46 S 6 9 29.94 1014 10 16.0934 0 0
1:55 pm 13:55 Sunny 85 29.7 59 15 41 41 S 3 6 29.94 1014 10 16.0934 0 0
2:15 pm 14:15 Sunny 85 29.7 60 15.5 42 42 S 7 11 29.94 1014 10 16.0934 0 0
2:35 pm 14:35 Sunny 86 30 62 16.4 44 44 S 7 11 29.94 1014 10 16.0934 0 0
2:55 pm 14:55 Sunny 86 30 61 16.1 43 43 S 7 11 29.91 1013 10 16.0934 0 0
3:15 pm 15:15 Sunny 86 30.1 62 16.6 44 44 SSE 9 15 29.91 1013 10 16.0934 0 0
3:35 pm 15:35 Sunny 86 30.2 63 17.2 46 46 S 8 13 29.91 1013 10 16.0934 0 0
3:55 pm 15:55 Partly Cloudy 86 30.1 64 17.6 47 47 SSE 12 19 29.91 1013 10 16.0934 0 0
4:15 pm 16:15 Partly Cloudy 85 29.6 63 17 47 47 SSE 12 19 29.91 1013 10 16.0934 0 0
4:35 pm 16:35 Partly Cloudy 85 29.5 64 17.6 49 49 S 9 15 29.91 1013 10 16.0934 0 0
4:55 pm 16:55 Sunny 85 29.5 63 17.1 47 47 SSE 13 20 29.91 1013 10 16.0934 0 0
5:15 pm 17:15 Partly Cloudy 85 29.3 63 17 47 47 SSE 10 17 29.91 1013 10 16.0934 0 0
5:35 pm 17:35 Sunny 84 29 64 17.5 50 50 SSE 10 17 29.88 1012 10 16.0934 0 0
5:55 pm 17:55 Sunny 85 29.2 61 15.9 45 45 SSE 10 17 29.88 1012 10 16.0934 0 0
6:15 pm 18:15 Sunny 84 29 62 16.8 48 48 SSE 9 15 29.88 1012 10 16.0934 0 0
6:35 pm 18:35 Sunny 83 28.6 63 17.1 50 50 SSE 9 15 29.88 1012 10 16.0934 0 0
6:55 pm 18:55 Sunny 83 28.2 64 17.6 53 53 SSE 7 11 29.88 1012 10 16.0934 0 0
7:15 pm 19:15 Sunny 82 27.7 64 17.8 55 55 SSE 7 11 29.88 1012 10 16.0934 0 0
7:35 pm 19:35 Sunny 81 27 65 18.3 59 59 SSE 6 9 29.91 1013 10 16.0934 0 0
7:55 pm 19:55 Sunny 78 25.7 65 18.6 65 65 SSE 6 9 29.91 1013 10 16.0934 0 0
8:15 pm 20:15 Sunny 76 24.7 65 18.5 69 69 SSE 6 9 29.91 1013 10 16.0934 0 0
8:35 pm 20:35 Sunny 75 23.9 65 18.5 72 72 SSE 3 6 29.91 1013 10 16.0934 0 0
8:55 pm 20:55 Clear 74 23.5 64 18 71 71 SSE 5 7 29.94 1014 10 16.0934 0 0
9:15 pm 21:15 Clear 73 23 64 18 74 74 SSE 3 6 29.94 1014 10 16.0934 0 0
9:35 pm 21:35 Clear 72 22 64 18 78 78 SSE 5 7 29.94 1014 10 16.0934 0 0
9:55 pm 21:55 Clear 71 21.6 64 17.5 78 78 SSE 5 7 29.94 1014 10 16.0934 0 0
10:15 pm 22:15 Clear 71 21.4 64 17.5 79 79 S 5 7 29.97 1015 10 16.0934 0 0
10:35 pm 22:35 Clear 69 20.6 64 17.5 83 83 SSE 3 6 29.97 1015 7 11.26538 0 0
10:55 pm 22:55 Clear 70 21 62 16.8 77 77 SE 3 6 29.97 1015 10 16.0934 0 0
11:15 pm 23:15 Clear 69 20.5 62 16.6 78 78 SE 6 9 29.97 1015 10 16.0934 0 0
11:35 pm 23:35 Clear 70 21 62 16.5 76 76 SE 5 7 29.94 1014 10 16.0934 0 0
11:55 pm 23:55 Clear 70 21.1 62 16.4 75 75 ESE 3 6 29.94 1014 10 16.0934 0 0

Powered by AerisWeather